sat.trackr.live / text

‹ back to catalog

HORACIO

NORAD 59098 · 2024-043A

PAYLOAD ACTIVE UNKNOWN

§ Identity

Operator
Country
SPN
Launch date
2024-03-04
Launch site
AFWTR
Launch vehicle
Mass (kg)
RCS (m²)

External: N2YO · Heavens-Above · Gunter

§ Orbital elements

Epoch: 2026-05-25T04:23:07.990368Z

Period
96.10 min
Inclination
97.8490°
Eccentricity
0.0012845
Mean motion
14.98414422 rev/d
Perigee alt
562.9 km
Apogee alt
580.7 km
Semi-major
6,949.9 km
B*
2.3192e-4
RAAN
276.8161°
Arg perigee
97.6575°
Mean anomaly
262.6106°
Rev number
12,122

§ Raw data

HORACIO1 59098U 24043A   26145.18273137  .00002711  00000+0  23192-3 0  99942 59098  97.8490 276.8161 0012845  97.6575 262.6106 14.98414422121220

JSON: /api/v1/satellites/59098 · /tle

For live sub-satellite position, see the globe view (requires WebGL).

§ Visibility from observer

Set your observer location to see the next 7 days of passes ≥ 10°. The values pass through the URL so the page stays shareable.

No JS? Fill the form by hand. The geolocation button needs JavaScript.

§ Radio — SatNOGS DB

ModeDescriptionDownlinkUplink
FM Telemetry 401.202 MHz

1 transmitter · refreshed weekly from db.satnogs.org